Wind_Speed
7 7 7 8 8 9 9 8 8 8 8 8 8 8 7 7 8 8 8 8 9 9 9 9 9 10 10 11 12 12 13 13 14 14 15 15 16 17 18 18 19 19 19
8 8 9 9 9 9 9 9 9 9 8 8 8 8 8 8 9 9 9 9 10 10 10 10 10 11 12 12 13 14 14 14 15 16 16 17 18 19 20 20 21 22 22
8 8 8 8 9 9 9 9 9 9 9 9 8 8 9 10 10 11 11 11 11 11 11 12 12 12 13 14 14 15 15 16 17 18 18 19 20 20 21 22 23 24 24
8 8 9 9 9 9 9 9 9 10 10 10 11 11 11 11 12 12 12 13 13 13 13 13 14 14 15 15 16 16 17 18 19 19 20 20 21 22 23 24 24 25 26
9 9 9 9 9 9 10 10 10 10 11 12 12 13 13 13 13 13 13 13 13 14 14 15 15 16 16 16 17 18 18 19 20 20 21 22 23 24 24 25 26 27 28
10 10 10 10 10 10 10 11 11 12 12 13 13 12 12 13 13 14 14 14 14 15 15 15 16 16 17 17 18 19 19 20 21 22 22 23 24 25 26 27 28 28 29
10 11 11 11 11 10 11 12 12 12 13 13 13 12 12 13 14 14 14 15 15 15 15 16 16 17 17 18 19 20 21 22 23 24 24 25 26 27 28 29 29 30 31
10 11 11 11 11 11 12 13 12 13 13 14 13 13 13 14 14 15 15 15 15 16 17 18 18 18 19 20 20 22 23 24 25 25 26 27 28 29 30 30 31 31 31
11 11 11 12 12 13 13 13 13 13 14 14 14 14 14 15 15 16 16 16 17 17 18 19 19 20 21 22 23 24 24 25 26 27 28 29 29 30 31 32 32 32 32
11 11 11 12 12 13 14 14 14 14 14 14 14 14 15 15 16 16 17 17 18 19 19 20 21 22 23 23 24 24 25 26 27 28 28 29 30 31 32 33 33 33 34
12 12 12 12 12 13 14 14 15 15 15 15 14 15 15 15 16 17 17 18 19 20 20 21 22 23 24 24 25 26 27 28 28 29 29 30 31 32 33 34 34 35 36
14 13 13 14 14 14 14 14 14 15 15 15 15 15 15 16 17 17 18 19 20 20 21 22 22 24 25 26 27 28 28 29 30 30 31 31 32 33 34 34 35 36 37
15 15 15 16 15 15 15 15 15 15 15 15 16 16 16 17 18 18 19 20 20 21 22 23 24 25 26 27 28 28 29 30 31 31 31 32 33 34 35 36 36 37 37
16 16 17 16 16 16 16 16 16 16 16 16 16 17 17 18 18 19 20 21 22 22 23 24 25 26 27 28 28 29 30 31 31 32 33 34 35 36 36 37 37 37 38
17 17 17 17 17 17 17 17 17 17 17 17 18 18 18 19 20 21 22 22 23 24 25 25 26 27 28 28 29 29 30 31 32 33 34 35 36 36 36 37 38 38 39
18 18 18 18 18 18 18 18 18 18 18 18 19 20 20 21 22 22 23 24 25 26 26 27 28 29 30 30 30 31 31 33 33 34 35 35 36 37 37 37 38 39 40
19 19 19 20 20 20 20 20 19 19 20 20 20 21 22 22 23 24 25 26 27 28 28 28 29 30 30 31 32 32 33 33 34 35 36 36 37 37 38 38 39 39 40
20 20 20 21 21 22 21 21 21 22 21 22 22 22 23 24 25 25 26 28 28 29 29 29 30 31 32 32 33 33 34 34 35 36 37 37 38 38 39 40 41 41 41
22 22 22 22 23 23 23 23 23 23 23 23 24 24 25 26 26 27 28 29 30 30 31 31 32 32 33 33 34 34 35 35 36 37 37 38 39 40 40 41 41 42 42
23 24 24 24 24 24 24 24 24 25 25 26 26 27 27 28 28 29 30 31 31 32 32 33 34 34 35 35 35 36 36 37 38 38 39 40 41 42 42 42 42 42 42
25 25 25 25 25 26 26 26 27 27 28 28 28 28 29 29 29 30 31 31 32 33 33 34 35 36 36 37 37 37 38 39 40 40 41 41 42 43 43 43 43 43 43
27 27 27 27 27 28 28 29 29 29 30 30 30 31 31 31 31 32 32 33 33 34 34 35 36 37 37 37 38 38 39 40 41 42 42 42 42 43 43 43 44 44 44
28 29 29 29 30 30 30 31 31 31 31 32 32 32 33 33 33 34 34 34 35 36 36 37 37 38 38 38 39 39 40 41 42 42 42 42 43 43 44 44 44 45 45
30 30 31 31 32 32 32 32 33 33 33 33 33 34 35 35 35 36 36 36 36 37 37 38 38 38 39 40 40 41 42 43 43 43 43 43 43 44 44 44 45 46 46
31 31 32 32 32 33 33 33 34 34 34 35 35 36 36 37 37 38 38 38 38 38 38 39 39 39 40 41 41 42 42 43 43 43 43 43 44 44 45 46 46 47 46
32 32 32 32 33 33 34 34 35 35 35 36 37 37 37 38 38 39 38 38 39 39 39 40 40 40 41 41 42 42 43 44 44 44 44 44 44 45 46 47 47 47 46
Wind_Direction
255 255 251 243 241 243 248 250 256 263 265 270 276 279 283 288 292 298 299 301 302 302 303 303 300 299 299 299 299 298 297 297 297 296 296 298 298 300 301 301 301 300 300
256 254 252 246 245 248 250 255 259 263 271 275 280 281 281 284 287 292 296 297 299 299 300 300 300 298 298 298 298 298 298 299 298 298 297 298 297 299 298 298 299 298 298
257 254 249 250 250 254 255 257 259 264 273 278 280 285 284 283 284 289 293 295 296 297 299 299 300 300 299 298 297 298 298 298 298 298 297 297 296 296 297 297 297 297 297
253 254 252 250 251 254 256 256 261 265 272 278 281 283 286 288 286 288 291 290 293 293 295 297 299 300 299 299 299 299 299 299 298 298 298 297 297 297 297 298 298 298 298
252 255 257 253 252 256 257 262 264 268 275 279 283 284 287 289 288 289 290 290 293 295 296 298 300 301 300 299 299 299 299 299 299 299 299 299 299 299 298 298 299 299 298
256 254 255 255 256 258 262 268 272 274 278 281 285 287 289 290 290 290 290 291 293 295 296 299 301 302 302 301 300 300 301 301 300 300 300 301 300 300 299 299 299 298 298
255 251 254 257 261 262 265 269 274 278 279 282 283 284 287 288 290 291 291 292 294 295 297 299 301 302 302 302 302 302 303 303 303 303 303 303 303 302 301 300 300 299 299
253 253 256 261 263 264 268 271 274 277 279 281 280 283 286 288 291 292 292 292 293 295 297 298 299 300 302 304 303 303 304 305 304 304 303 304 304 304 303 302 301 301 300
262 260 259 262 265 267 268 271 273 276 280 280 280 281 284 288 291 292 291 292 295 297 298 298 300 301 302 303 304 304 305 305 306 305 305 305 305 305 305 304 303 302 301
264 263 262 263 266 267 269 271 275 277 279 281 282 282 283 287 290 291 292 293 295 296 298 299 300 301 302 304 305 306 306 306 306 306 306 306 306 305 305 304 303 302 301
264 263 263 265 268 271 273 274 275 277 280 283 284 284 286 289 290 292 293 295 296 297 298 299 300 301 303 304 305 306 306 306 306 306 307 307 306 306 305 304 304 303 303
263 263 264 265 269 273 276 277 277 279 281 282 284 285 287 289 291 293 295 297 299 300 300 301 302 303 304 304 304 305 305 305 306 307 307 306 306 306 306 305 305 305 305
262 263 264 267 269 271 274 276 278 282 283 283 284 287 288 289 291 294 296 298 300 301 302 302 303 304 304 304 305 306 306 306 306 307 307 307 307 307 306 305 305 306 304
264 265 268 268 269 270 273 276 279 281 283 284 286 289 291 291 293 295 297 297 298 300 302 304 305 305 305 306 307 307 307 307 307 308 308 308 308 308 307 306 306 306 306
266 267 268 269 269 271 272 274 277 278 280 283 285 287 289 291 293 295 297 298 298 299 301 303 304 305 306 306 307 307 308 309 308 308 309 309 309 309 308 307 307 306 306
267 268 269 270 269 270 272 273 275 276 278 281 284 286 287 289 291 294 296 298 299 300 301 302 303 304 306 306 306 307 308 308 309 309 309 310 310 310 310 309 308 307 307
267 268 269 271 271 272 273 272 272 274 278 281 283 285 287 290 292 294 296 298 299 300 301 302 303 305 306 307 307 307 307 308 309 310 309 309 310 311 312 311 310 309 308
269 270 270 271 271 273 273 272 273 275 277 281 283 285 287 289 291 293 295 298 300 300 301 301 302 304 305 306 307 307 307 308 309 309 309 309 310 311 312 312 310 309 308
268 269 270 270 270 271 273 273 273 275 277 280 283 285 286 288 290 292 294 297 299 300 300 301 301 303 305 306 307 308 308 308 309 309 310 310 310 311 312 311 310 309 308
267 267 268 269 269 270 271 272 272 274 276 279 282 284 286 287 289 292 294 296 297 298 298 299 300 302 304 305 306 307 307 308 308 309 310 310 311 311 312 311 310 309 309
268 267 268 268 269 269 270 272 274 275 277 279 281 283 285 287 288 291 294 296 297 297 298 299 300 302 303 304 305 306 307 307 308 308 308 309 310 311 312 312 311 310 310
269 268 267 268 269 270 272 273 274 276 278 279 281 282 284 286 289 291 292 294 295 297 298 299 300 301 302 304 305 305 306 307 308 308 308 309 310 311 312 312 312 311 311
269 268 268 268 269 270 272 273 275 276 278 280 282 283 284 286 288 290 291 292 294 296 297 298 299 300 301 303 304 305 306 307 307 307 308 308 309 310 311 312 312 312 312
270 269 268 268 270 271 273 274 275 276 277 279 281 283 284 286 288 289 289 291 293 295 296 297 298 299 300 302 303 304 305 306 307 308 308 309 309 310 311 311 312 312 312
269 269 269 270 271 273 274 275 276 276 277 279 281 282 284 286 287 289 290 291 292 293 295 297 298 299 300 301 303 304 305 306 307 308 308 309 309 310 310 311 312 312 312
271 270 270 271 272 274 275 276 277 278 279 280 281 283 284 285 287 288 289 291 293 294 295 297 298 299 300 301 302 303 304 306 307 307 308 309 309 310 311 311 312 312 312
Height
5846 5847 5848 5850 5851 5852 5853 5854 5854 5854 5855 5855 5855 5855 5855 5855 5855 5854 5854 5853 5853 5852 5852 5851 5850 5850 5849 5849 5848 5847 5846 5846 5845 5844 5843 5842 5841 5840 5839 5837 5836 5835 5833
5844 5845 5846 5847 5849 5850 5850 5851 5852 5852 5853 5853 5853 5853 5853 5853 5853 5852 5852 5851 5851 5850 5849 5849 5848 5847 5847 5846 5845 5844 5843 5842 5841 5840 5839 5838 5837 5835 5834 5833 5831 5830 5828
5842 5843 5844 5845 5846 5847 5848 5849 5849 5850 5850 5851 5851 5851 5851 5850 5850 5850 5849 5849 5848 5847 5847 5846 5845 5844 5843 5843 5842 5840 5839 5838 5837 5836 5835 5833 5832 5830 5829 5827 5826 5824 5822
5840 5841 5842 5843 5844 5845 5846 5846 5847 5847 5848 5848 5848 5848 5848 5847 5847 5847 5846 5846 5845 5844 5844 5843 5842 5841 5840 5839 5838 5837 5835 5834 5833 5831 5830 5828 5827 5825 5823 5821 5820 5818 5816
5838 5839 5840 5841 5842 5842 5843 5843 5844 5845 5845 5845 5845 5845 5845 5844 5844 5843 5843 5842 5842 5841 5840 5839 5838 5837 5836 5835 5834 5832 5831 5830 5828 5826 5825 5823 5821 5819 5817 5815 5813 5811 5809
5835 5836 5837 5838 5839 5840 5840 5841 5841 5842 5842 5842 5842 5841 5841 5841 5840 5840 5839 5839 5838 5838 5837 5836 5835 5833 5832 5831 5829 5828 5826 5824 5823 5821 5819 5817 5815 5813 5810 5808 5806 5804 5802
5832 5833 5834 5835 5836 5837 5837 5838 5838 5838 5838 5838 5838 5838 5838 5837 5837 5836 5836 5835 5835 5834 5833 5832 5831 5829 5828 5826 5824 5823 5821 5819 5817 5815 5813 5811 5808 5806 5803 5801 5798 5796 5793
5830 5831 5832 5832 5833 5834 5834 5834 5835 5835 5835 5835 5834 5834 5834 5834 5833 5832 5832 5831 5831 5830 5829 5828 5826 5825 5823 5821 5820 5818 5816 5813 5811 5809 5806 5804 5801 5798 5796 5793 5790 5787 5785
5827 5827 5828 5829 5830 5830 5831 5831 5831 5831 5831 5831 5830 5830 5830 5830 5829 5828 5828 5827 5826 5825 5824 5823 5821 5820 5818 5816 5814 5812 5810 5807 5805 5802 5799 5796 5793 5790 5787 5784 5781 5778 5776
5824 5824 5825 5826 5826 5827 5827 5827 5827 5827 5827 5827 5826 5826 5826 5826 5825 5824 5823 5823 5822 5821 5819 5818 5816 5814 5812 5810 5808 5806 5803 5801 5798 5795 5792 5789 5785 5782 5778 5775 5772 5769 5766
5820 5821 5822 5822 5823 5823 5823 5823 5823 5823 5823 5823 5822 5822 5822 5821 5821 5820 5819 5818 5817 5816 5814 5812 5811 5808 5806 5804 5802 5799 5797 5794 5791 5788 5785 5781 5778 5774 5770 5766 5762 5759 5756
5817 5817 5818 5818 5819 5819 5819 5819 5819 5819 5819 5819 5818 5818 5818 5817 5816 5815 5814 5813 5812 5810 5809 5807 5805 5802 5800 5797 5795 5792 5789 5786 5783 5780 5777 5773 5769 5765 5761 5757 5753 5749 5746
5812 5813 5814 5814 5815 5815 5815 5815 5815 5815 5815 5815 5814 5814 5813 5812 5812 5810 5809 5808 5806 5805 5803 5801 5798 5796 5793 5791 5788 5785 5782 5779 5776 5772 5769 5765 5761 5756 5752 5748 5744 5740 5736
5808 5809 5809 5810 5810 5811 5811 5811 5811 5810 5810 5810 5809 5809 5808 5808 5807 5805 5804 5802 5801 5799 5797 5794 5792 5789 5787 5784 5781 5778 5774 5771 5767 5764 5760 5756 5752 5748 5743 5739 5734 5730 5726
5803 5804 5804 5805 5805 5805 5806 5806 5806 5806 5805 5805 5805 5804 5803 5803 5801 5800 5798 5797 5795 5793 5790 5788 5785 5783 5780 5777 5774 5770 5767 5763 5759 5756 5751 5747 5743 5738 5734 5729 5724 5720 5715
5798 5798 5799 5799 5800 5800 5800 5800 5800 5800 5800 5799 5799 5798 5797 5797 5795 5794 5792 5790 5788 5786 5784 5781 5778 5775 5773 5769 5766 5763 5759 5755 5751 5747 5743 5738 5734 5729 5724 5719 5714 5710 5705
5793 5793 5793 5794 5794 5794 5795 5795 5795 5795 5794 5794 5793 5792 5791 5790 5789 5787 5785 5783 5781 5779 5776 5774 5771 5768 5765 5762 5758 5755 5751 5747 5743 5738 5734 5730 5725 5720 5715 5710 5704 5699 5694
5786 5787 5787 5787 5788 5788 5788 5788 5788 5788 5788 5787 5787 5786 5785 5783 5782 5780 5778 5776 5774 5771 5769 5766 5763 5760 5757 5754 5750 5746 5742 5738 5734 5729 5725 5720 5715 5710 5705 5700 5694 5689 5684
5779 5780 5780 5781 5781 5781 5781 5781 5781 5781 5781 5780 5780 5779 5778 5776 5774 5773 5771 5768 5766 5763 5761 5758 5755 5752 5749 5745 5742 5738 5734 5729 5725 5720 5715 5710 5705 5700 5695 5689 5684 5678 5673
5773 5773 5773 5774 5774 5774 5774 5774 5774 5774 5773 5773 5772 5771 5770 5768 5767 5765 5763 5760 5758 5755 5753 5750 5747 5743 5740 5736 5732 5729 5724 5720 5715 5711 5706 5701 5695 5690 5685 5679 5673 5668 5662
5765 5765 5766 5766 5766 5766 5766 5766 5766 5766 5765 5765 5764 5763 5762 5760 5758 5756 5754 5752 5749 5747 5744 5741 5738 5734 5731 5727 5723 5719 5715 5710 5705 5700 5695 5690 5685 5679 5674 5668 5662 5656 5651
5757 5757 5758 5758 5758 5758 5758 5757 5757 5757 5756 5756 5755 5753 5752 5751 5749 5747 5745 5743 5740 5737 5734 5731 5728 5725 5721 5717 5713 5709 5704 5699 5695 5690 5684 5679 5674 5668 5662 5657 5651 5645 5639
5748 5748 5748 5749 5749 5749 5748 5748 5748 5747 5747 5746 5745 5744 5742 5741 5739 5737 5735 5733 5730 5727 5724 5721 5718 5714 5710 5706 5702 5698 5693 5688 5683 5678 5673 5668 5662 5657 5651 5645 5639 5633 5627
5738 5739 5739 5739 5739 5738 5738 5738 5737 5737 5736 5736 5735 5734 5732 5730 5728 5726 5724 5722 5719 5717 5714 5710 5707 5703 5700 5695 5691 5687 5682 5677 5671 5666 5661 5656 5651 5645 5639 5633 5627 5621 5615
5729 5729 5729 5729 5728 5728 5728 5727 5727 5726 5725 5725 5724 5722 5721 5719 5717 5715 5713 5711 5708 5705 5702 5699 5696 5692 5688 5684 5679 5675 5670 5665 5660 5654 5649 5644 5639 5633 5628 5622 5615 5609 5603
5719 5719 5718 5718 5718 5718 5717 5716 5716 5715 5714 5713 5712 5711 5709 5707 5705 5703 5701 5699 5696 5693 5691 5687 5684 5680 5676 5672 5668 5663 5658 5653 5648 5642 5637 5632 5627 5621 5615 5609 5603 5597 5591